Location: Peterborough
(44.3091°N, 78.3197°W)
Time: 20:07:40
(UTC-04:00)

A-11 Canister half - Pass Details

Date: 29 March 2023
Orbit: 1526 x 1682 km, 47.3° (Epoch: 06 June)

Event Time Altitude Azimuth Distance (km) Brightness Sun altitude
Rises 23:20:47 0° 294° (WNW) 4,845 12.4 -35.3°
Reaches altitude 10° 23:24:19 10° 286° (WNW) 3,833 11.6 -35.7°
Enters shadow 23:32:14 33° 231° (SW) 2,415 9.9 -36.5°
